Terug naar catalogus

STARLINK-36982

ActiefCommunicatieVLEO
NORAD 68278·PAYLOAD·🇺🇸 United States

Gelanceerd Mar 19, 2026 vanaf Vandenberg Space Force Base

Loading…

Volgende Passages (komende 24 uur)

TLE

VersSource: CelesTrak SupGP

Epoch: Sep 14, 2026, 21:31 UTC

1 68278C 26055S   26257.89701389 -.00039036  00000+0 -11531-2 0  2578
2 68278  53.1581 156.0512 0001331  76.4877 190.7788 15.34416207    17

Volg STARLINK-36982 in realtime met AllMySat

Download on the App Store